South Alabama Regional At Bill Benton Field Airport
K79J : rendu visible

Aérodrome :











RETROUVEZ-NOUS SUR...

 
LOGIN :

S'inscrire | Disclaimer

   EN    FR    IT 

 









Légende :    VFR   VFR Marginal   IFR   IFR Intensif   IFR Très Intensif
Visi : 
Plafond : 
>= 8 km
>= 3000ft
5 à 8 km
1000 à 3000 ft
1500m à 5 km
500 à 1000 ft
800 à 1500m
200 à 500 ft
< 800m
< 200 ft
Symboles :   Orages  Brouillard  Fortes neiges  Fortes précipitations  Vent > 20 kt






- Altitude de l'aérodrome : 310 ft


K79J - South Alabama Regional At Bill Benton Field

DERNIER METAR :
  • 071756Z AUTO 23009KT 10SM SCT024 BKN036 32/23 A2999 RMK AO2 SLP151 60002 T03170228 10317 20250 58007

METARs EXPIRÉS :
  • 071742Z AUTO 26008KT 10SM SCT021 BKN034 32/23 A3000 RMK AO2 T03170228
  • 071656Z AUTO 27007KT 10SM BKN018 BKN024 BKN029 29/23 A3001 RMK AO2 SLP158 T02940228
  • 071644Z AUTO 29005KT 10SM SCT011 BKN019 BKN025 29/23 A3001 RMK AO2 T02940233
  • 071611Z AUTO 26006KT 10SM BKN010 OVC015 27/23 A3002 RMK AO2 T02720228
  • 071556Z AUTO 25005KT 10SM SCT010 OVC017 27/23 A3002 RMK AO2 RAB42E53 SLP161 P0001 T02670233

TAF N/A



MET'MAP, la Météo Aéronautique d'un coup d'oeil ! - Copyright ORBIFLY Décembre 2007 - Disclaimer

ORBIFLY MET'MAP TEAM :

Programmation & Développement : Alexandra Zaïnal
Sur une idée originale de : Baudouin d'Aumeries
Assistance à la programmation : Marc-Olivier Méhu
Soutien technique & logistique : Manuel Goepfert

Contact : metmap@orbifly.com




SOURCES & CREDITS :

   NOAA       Earth
Advisory